Location: Home
(42.5358°N, 72.7383°W)
Time: 12:52:45
(UTC-05:00)

A-11 Canister half - Pass Details

Date: 08 December 2021
Orbit: 1524 x 1684 km, 47.3° (Epoch: 26 January)

Event Time Altitude Azimuth Distance (km) Brightness Sun altitude
Rises 06:50:15 0° 296° (WNW) 4,917 - -3.7°
Exits shadow 06:51:34 - 295° (WNW) 4,516 10.7 -3.5°
Reaches altitude 10° 06:53:35 10° 291° (WNW) 3,911 10.5 -3.2°
Maximum altitude 07:02:55 47° 223° (SW) 2,061 9.7 -1.7°
Drops below altitude 10° 07:11:57 10° 153° (SSE) 3,782 12.2 -0.3°
Sets 07:15:08 0° 147° (SSE) 4,743 12.9 0.2°
